Lexington Weather

Lexington, Massachusetts, USA

53°F
10/20/2019 7:52pm 
  • Lexington Conditions: Overcast
  • Temperature: 53.4°F / 11.9°CColder 1.3°F than last hour.
  • Dew Point: 48.0°F 
  • Relative Humidity: 82%Increased 4.0% since last hour.
  • Wind: Calm, 10-min avg: Calm, gust: None
  • Barometer: 30.01 in Steady
  • Visibility: 10 miles
  • Rain Today: 0.00 in
  •   

Regional Weather Roundup
for Boston, MA

        
000
ASUS41 KBOX 191901
RWRBOX

REGIONAL WEATHER ROUNDUP
NATIONAL WEATHER SERVICE BOSTON/NORTON MA
300 PM EDT SAT OCT 19 2019

NOTE:  "FAIR" INDICATES FEW OR NO CLOUDS BELOW 12,000 FEET WITH NO 
SIGNIFICANT WEATHER AND/OR OBSTRUCTIONS TO VISIBILITY.

MAZALL-192000-
EASTERN MASSACHUSETTS
  
CITY           SKY/WX    TMP DP  RH WIND       PRES   REMARKS
BOSTON         FAIR      61  33  35 W7        29.98S                  
BEVERLY        FAIR      58  35  42 NW8       29.97S                  
LAWRENCE       FAIR      58  35  42 W8        29.99S                  
BEDFORD        FAIR      62  34  35 W5        29.97S                  
BLUE HILL      NOT AVBL                                               
NORWOOD        FAIR      62  35  36 NW7       29.98S                  
MARSHFIELD     NOT AVBL                                               
PLYMOUTH       FAIR      58  37  45 W12       29.99R                  
TAUNTON        FAIR      59  34  39 W6        29.98S                  
NEW BEDFORD    FAIR      57  36  45 W8        29.99S                  
$$

MAZALL-192000-
CAPE COD AND THE ISLANDS
  
CITY           SKY/WX    TMP DP  RH WIND       PRES   REMARKS
FALMOUTH       SUNNY     55  36  47 NW9       30.00S                  
HYANNIS        NOT AVBL                                               
CHATHAM        NOT AVBL                                               
PROVINCETOWN   FAIR      52  39  61 N5          N/A                   
NANTUCKET      FAIR      54  40  59 W10G16    30.00F                  
MARTHAS VNYRD  FAIR      55  37  50 W10       30.00F                  
$$
 
MAZALL-192000-
CENTRAL AND WESTERN MASSACHUSETTS
  
CITY           SKY/WX    TMP DP  RH WIND       PRES   REMARKS
WORCESTER      FAIR      54  33  45 W8        29.98S                  
FITCHBURG      FAIR      59  30  33 MISG      29.99S                  
ORANGE         FAIR      59  32  36 NE6       29.99F                  
SPRINGFIELD    MOSUNNY   60  34  37 SE5       29.98F                  
WESTFIELD      FAIR      60  32  34 VRB3      29.98F                  
NORTH ADAMS    FAIR      55  32  41 VRB7      30.01F                  
PITTSFIELD     FAIR      54  35  48 W9        30.00S                  
$$
 
RIZALL-192000-
RHODE ISLAND
  
CITY           SKY/WX    TMP DP  RH WIND       PRES   REMARKS
PROVIDENCE     FAIR      59  36  42 VRB7      29.99F                  
NEWPORT        FAIR      57  39  51 VRB5      30.00S                  
BLOCK ISLAND   FAIR      55  39  54 W13       30.02F                  
SMITHFIELD     FAIR     N/A N/A N/A W7        29.99S                  
WESTERLY       FAIR      59  43  55 SW8       30.01F                  
$$
 
CTZALL-192000-
CONNECTICUT
  
CITY           SKY/WX    TMP DP  RH WIND       PRES   REMARKS
BRADLEY INTL   FAIR      64  33  31 W5        29.99S                  
HARTFORD       FAIR      61  34  36 VRB3      29.99F                  
BRIDGEPORT     FAIR      58  39  49 SW13      30.02F                  
DANBURY        FAIR      58  33  39 VRB5      30.02F                  
GROTON         NOT AVBL                                               
NEW HAVEN      FAIR      60  43  53 SW10G20   30.01F                  
CHESTER        FAIR      61  37  41 VRB7      30.00F                  
MERIDEN        FAIR      60  35  39 W7        30.00F                  
WILLIMANTIC    FAIR      58  35  42 NW6       30.01F                  
OXFORD         FAIR      57  35  43 NW8       30.01F                  
$$

MEZ002-015-021-024-NHZ003-005-008-011-012-014-VTZ005-008-192000-
NORTHERN NEW ENGLAND
  
CITY           SKY/WX    TMP DP  RH WIND       PRES   REMARKS
PORTLAND ME    FAIR      58  36  43 W7        29.94F                  
BANGOR ME      FAIR      56  34  43 NW14      29.90S                  
CONCORD NH     FAIR      58  31  35 NW5       29.97S                  
MANCHESTER NH  FAIR      58  30  34 NW13      29.96F                  
NASHUA NH      FAIR      59  33  37 NW7       29.98S                  
PORTSMOUTH NH  SUNNY     59  32  36 W9        29.94F                  
JAFFREY NH     FAIR      55  30  38 W9        29.98S                  
KEENE NH       FAIR      57  32  38 N5        29.99S                  
BURLINGTON VT  FAIR      53  32  44 N7        30.03F                  
MT. WASHINGTON MOSUNNY   27   3  36 NW41        N/A  WCI   8          
$$

NYZ052-076-192000-
EASTERN NEW YORK
  
CITY           SKY/WX    TMP DP  RH WIND       PRES   REMARKS
ALBANY         FAIR      58  35  42 VRB3      30.03F                  
NEW YORK CITY  FAIR      60  34  37 VRB5      30.03F                  
$$
 
ANZALL-192000-
MARINE OBSERVATIONS
  
STATION/POSITION TIME  TEMP    WIND        PRES    VSBY  WAVE
                       AIR SEA DIR/SP/G                  HT/PER
                 (UTC) (F)     (DEG/KT/KT) (MB)    (MI)  (FT/S)
BOSTON BUOY      1750   51 56  240/  6/ 10 1014.5          1/12
BUZZARDS BAY     1800   51     260/ 12/ 13 1016.7F
NANTUCKET SOUND  1840      56                N/A           1
MASS BAY-STELLWA 1804   52 56  230/  8/ 12 1014.2F  1 7/8  1/ 4
ISLE OF SHOALS   1800   53     210/  4/  4 1014.2F
S OF BLOCK IS    1830      60                N/A           2/ 4
$$

......................KEY.........................
  SKY/WX - SKY CONDITION/PRESENT WEATHER
  TMP    - TEMPERATURE IN FAHRENHEIT
  DWPT   - DEWPOINT IN FAHRENHEIT
  RH     - RELATIVE HUMIDITY IN PERCENT
  WIND   - DIRECTION AND SPEED IN MPH
  PRES   - MEAN SEA LEVEL PRESSURE IN INCHES OF HG
  WCI    - WIND CHILL INDEX
  VSB    - VISIBILITY IN MILES
  HX     - HEAT INDEX
  TC     - TEMPERATURE IN CELSIUS
  VRB    - VARIABLE WIND DIRECTION
  N/A    - NOT AVAILABLE
  
      

Other recent Regional Weather Roundups

Sun Oct 20, 7:10pm

Sun Oct 20, 7:01pm

Sun Oct 20, 6:10pm

Sun Oct 20, 6:00pm

Sun Oct 20, 5:10pm

Sun Oct 20, 5:00pm

Sun Oct 20, 4:10pm

Sun Oct 20, 4:00pm

Sun Oct 20, 3:10pm

Sun Oct 20, 3:00pm

Sun Oct 20, 2:10pm

Sun Oct 20, 2:01pm

Sun Oct 20, 1:10pm

Sun Oct 20, 1:01pm

Sun Oct 20, 12:10pm

Sun Oct 20, 12:00pm

Sun Oct 20, 11:10am

Sun Oct 20, 11:00am

Sun Oct 20, 10:10am

Sun Oct 20, 10:00am

Sun Oct 20, 9:10am

Sun Oct 20, 9:00am

Sun Oct 20, 8:10am

Sun Oct 20, 8:00am

Sun Oct 20, 7:10am

Sun Oct 20, 7:00am

Sun Oct 20, 6:10am

Sun Oct 20, 6:00am

Sun Oct 20, 5:10am

Sun Oct 20, 5:00am

Sun Oct 20, 4:10am

Sun Oct 20, 4:00am

Sun Oct 20, 3:10am

Sun Oct 20, 3:00am

Sun Oct 20, 2:10am

Sun Oct 20, 2:00am

Sun Oct 20, 1:10am

Sun Oct 20, 1:00am

Sun Oct 20, 12:10am

Sun Oct 20, 12:00am

Sat Oct 19, 11:10pm

Sat Oct 19, 11:00pm

Sat Oct 19, 10:10pm

Sat Oct 19, 10:00pm

Sat Oct 19, 9:10pm

Sat Oct 19, 9:00pm

Sat Oct 19, 8:10pm

Sat Oct 19, 8:00pm

Sat Oct 19, 7:10pm

Sat Oct 19, 7:00pm

Sat Oct 19, 6:10pm

Sat Oct 19, 6:00pm

Sat Oct 19, 5:10pm

Sat Oct 19, 5:00pm

Sat Oct 19, 4:10pm

Sat Oct 19, 4:00pm

Sat Oct 19, 3:10pm

Sat Oct 19, 2:10pm

Sat Oct 19, 2:00pm

Sat Oct 19, 1:10pm

Sat Oct 19, 1:01pm

Sat Oct 19, 12:10pm

Sat Oct 19, 12:00pm

Sat Oct 19, 11:10am

Sat Oct 19, 11:01am

Sat Oct 19, 10:10am

Sat Oct 19, 10:00am

Sat Oct 19, 9:10am

Sat Oct 19, 9:00am

Sat Oct 19, 8:10am

Sat Oct 19, 8:00am

Sat Oct 19, 7:10am

Sat Oct 19, 7:00am

Sat Oct 19, 6:10am

Sat Oct 19, 6:00am

Sat Oct 19, 5:10am

Sat Oct 19, 5:00am

Sat Oct 19, 4:10am

Sat Oct 19, 4:00am

Sat Oct 19, 3:10am

Sat Oct 19, 3:00am

Sat Oct 19, 2:10am

Sat Oct 19, 2:00am

Sat Oct 19, 1:10am

Sat Oct 19, 1:00am

Sat Oct 19, 12:10am

Sat Oct 19, 12:00am

Fri Oct 18, 11:10pm

Fri Oct 18, 11:01pm

Fri Oct 18, 10:10pm

Fri Oct 18, 10:00pm

Fri Oct 18, 9:10pm

Fri Oct 18, 9:00pm

Fri Oct 18, 8:10pm

Fri Oct 18, 8:00pm

Fri Oct 18, 7:10pm

Fri Oct 18, 7:00pm

Fri Oct 18, 6:10pm

Fri Oct 18, 6:01pm

Fri Oct 18, 5:10pm

Fri Oct 18, 5:00pm

Fri Oct 18, 4:10pm

Fri Oct 18, 4:00pm

Fri Oct 18, 3:10pm

Fri Oct 18, 3:01pm

Fri Oct 18, 2:10pm

Fri Oct 18, 2:00pm

Fri Oct 18, 1:10pm

Fri Oct 18, 1:01pm

Fri Oct 18, 12:10pm

Fri Oct 18, 12:00pm

Fri Oct 18, 11:10am

Fri Oct 18, 11:00am

Fri Oct 18, 10:10am

Fri Oct 18, 10:00am

Fri Oct 18, 9:10am

Fri Oct 18, 9:00am

Fri Oct 18, 8:10am

Fri Oct 18, 8:00am

Fri Oct 18, 7:10am

Fri Oct 18, 7:00am

Fri Oct 18, 6:10am

Fri Oct 18, 6:00am

Fri Oct 18, 5:10am

Fri Oct 18, 5:00am

Fri Oct 18, 4:10am

Fri Oct 18, 4:00am

Fri Oct 18, 3:10am

Fri Oct 18, 3:00am

Fri Oct 18, 2:10am

Fri Oct 18, 2:00am

Fri Oct 18, 1:10am

Fri Oct 18, 1:00am

Fri Oct 18, 12:10am

Fri Oct 18, 12:00am

Thu Oct 17, 11:10pm

Thu Oct 17, 11:00pm

Thu Oct 17, 10:10pm

Thu Oct 17, 10:00pm

Thu Oct 17, 9:10pm

Thu Oct 17, 9:00pm

Thu Oct 17, 8:10pm

Thu Oct 17, 8:00pm

Meta data:

ID: afc4f501-2305-4eb8-b626-d6809fb2041a
Link: https://api.weather.gov/products/afc4f501-2305-4eb8-b626-d6809fb2041a